{"data":{"norad_id":53567,"epoch":"2026-09-20T11:58:42.420576Z","epoch_age_seconds":78311,"freshness":"FRESH","line1":"1 53567U 22101AS  26263.49910209 -.00000260  00000+0  33931-5 0  9997","line2":"2 53567  53.1581 249.9010 0001251  77.5088 282.6053 15.31697963225982","mean_motion":15.31697963,"eccentricity":0.0001251,"inclination_deg":53.1581,"raan_deg":249.901,"arg_perigee_deg":77.5088,"mean_anomaly_deg":282.6053,"bstar":3.3931e-6,"rev_number":22598,"period_min":94.013312988913,"perigee_km":469.88927215165,"apogee_km":471.60286269512,"semimajor_km":6848.8830674234,"source":"CELESTRAK","updated_at":"2026-09-21T09:00:32.929720Z"}}